Wind_Speed
16 15 14 13 13 11 8 7 6 6 9 11 11 11 13 13 17 20 20 20 21 23 24 27 29 32 36 39 44 49 56 58 59 55 47 47 43 37 30 29 23 15 10
17 17 16 15 15 15 11 9 10 10 12 14 14 14 15 16 16 20 22 22 24 25 24 25 28 31 35 39 43 49 55 57 58 57 51 49 45 40 32 26 22 14 10
22 20 16 16 16 16 12 11 13 11 12 16 18 18 18 19 17 19 21 23 23 25 26 25 26 28 33 39 42 48 53 57 58 55 54 51 48 43 35 27 22 11 8
21 19 21 17 14 14 13 13 12 13 12 15 17 17 18 18 18 19 19 21 22 24 26 27 27 27 30 35 40 45 51 56 56 54 53 53 51 48 39 31 24 15 10
23 24 22 21 16 17 15 14 14 16 14 14 18 19 19 20 19 21 21 20 20 23 25 27 29 28 29 32 37 42 47 53 55 55 52 52 53 51 42 36 31 21 16
29 25 26 24 21 17 16 16 16 16 15 16 17 18 18 21 20 21 24 22 21 23 24 25 28 28 29 29 34 38 44 49 54 53 51 52 52 51 46 39 38 29 20
23 42 30 24 17 14 15 14 16 16 15 15 15 18 18 19 19 20 23 26 24 24 25 25 25 28 28 29 31 35 39 45 49 49 51 50 50 50 46 42 38 36 26
30 40 36 26 23 22 20 19 12 17 14 15 18 20 19 20 21 20 23 24 23 23 25 25 25 27 27 28 29 31 35 39 44 46 49 48 47 47 44 42 40 35 30
24 28 29 26 19 19 17 19 20 18 16 16 17 20 20 19 18 21 22 24 24 23 23 24 25 27 26 27 28 28 30 34 40 45 44 45 43 43 41 37 38 38 28
28 25 19 21 26 23 20 20 22 18 19 17 17 19 18 21 20 22 24 24 25 24 24 25 28 27 26 25 25 27 27 30 34 40 41 43 40 40 38 33 31 32 31
30 26 25 23 22 23 21 23 22 21 21 18 19 20 22 23 21 23 23 23 24 23 24 25 24 28 25 25 24 25 25 26 29 33 38 37 38 36 34 32 27 25 24
34 33 30 27 26 22 27 22 23 22 21 19 19 22 24 23 20 20 23 23 23 22 23 27 35 26 25 23 24 23 23 23 26 28 32 33 33 32 33 31 27 22 22
41 41 40 36 34 33 33 32 31 31 25 24 23 24 23 19 15 11 11 18 20 19 22 27 30 27 30 26 24 22 21 20 22 25 26 29 27 30 29 29 27 24 20
42 42 43 43 43 44 36 36 30 26 24 25 23 23 24 20 18 18 15 18 21 23 26 27 27 27 25 26 25 18 18 17 18 21 21 23 24 24 24 25 24 24 21
47 48 45 42 41 43 39 38 37 36 32 28 26 26 25 23 23 24 24 22 22 23 23 25 28 31 28 25 21 22 22 15 14 17 18 17 20 19 22 20 21 21 22
50 50 48 46 41 43 41 36 35 33 34 34 30 29 30 28 26 26 25 22 24 24 25 29 29 28 27 26 24 17 20 19 15 14 16 15 15 16 14 17 15 18 20
53 52 48 47 45 45 45 41 38 36 35 33 32 30 30 30 29 28 28 30 30 28 28 31 34 32 24 29 28 28 28 20 16 16 15 15 12 12 11 11 12 12 15
54 58 56 53 50 47 44 43 42 38 37 34 31 31 31 31 30 29 30 29 30 32 32 30 28 28 29 30 32 30 22 19 21 20 19 17 14 11 10 8 8 9 8
54 53 53 52 52 52 49 47 44 40 37 36 33 31 31 30 29 29 28 28 30 32 32 32 29 33 32 29 31 27 21 21 21 15 21 21 17 11 10 7 5 5 6
51 51 52 52 51 51 51 50 46 42 39 36 32 31 30 29 27 29 28 29 29 31 32 34 33 34 38 36 30 22 17 17 19 19 22 23 21 15 12 9 5 2 2
47 49 50 49 52 51 48 47 45 42 39 36 33 31 30 29 28 30 28 27 28 31 36 30 24 24 25 23 22 15 10 12 8 15 20 22 24 21 15 13 10 5 3
46 46 47 48 49 48 47 45 44 43 41 37 34 31 30 29 29 28 27 29 26 18 15 16 18 18 18 16 19 22 10 9 12 13 10 21 25 25 21 17 15 12 7
48 47 47 45 45 43 42 41 41 39 37 35 33 32 32 32 30 30 27 25 21 18 14 13 14 16 19 18 17 6 8 14 12 13 14 16 17 28 28 22 19 19 13
46 46 45 43 44 41 41 40 35 35 34 33 33 33 35 37 32 33 31 28 26 24 21 19 18 19 16 20 16 17 14 14 18 17 17 19 21 28 34 31 26 22 20
42 46 48 44 38 38 39 41 40 36 34 33 32 34 37 35 35 37 35 31 25 19 16 15 15 15 16 14 17 19 20 20 20 16 15 18 19 19 26 37 39 33 25
36 42 47 47 43 40 38 38 36 37 35 33 33 36 37 38 39 40 39 35 30 27 23 19 16 16 16 17 16 16 18 20 21 21 13 20 21 23 19 27 30 42 35
Wind_Direction
220 228 228 234 238 236 239 253 261 273 294 310 318 323 326 334 335 332 334 333 332 336 337 339 347 351 352 354 356 2 8 6 6 9 9 9 8 10 13 20 22 31 47
208 221 230 234 236 242 242 258 262 272 284 291 298 303 312 318 322 322 326 330 331 333 334 336 339 347 350 355 358 3 7 7 9 10 10 10 12 10 12 13 19 26 35
206 202 209 229 243 253 255 254 267 273 282 291 301 309 313 316 318 311 316 323 328 331 331 333 334 343 348 354 359 2 7 9 11 11 12 10 12 15 11 15 14 31 46
220 216 216 207 231 244 243 247 260 271 274 284 291 300 310 317 323 312 312 318 324 329 331 331 333 337 347 350 357 1 7 9 11 13 13 11 12 17 15 21 28 43 71
225 215 218 214 209 234 237 244 247 259 269 279 292 300 308 315 322 316 311 312 320 325 330 330 330 335 342 350 352 360 5 9 11 13 15 13 12 17 21 26 41 52 67
218 224 223 213 205 217 229 239 250 262 273 279 289 298 309 311 316 315 315 312 315 317 321 327 328 332 338 347 349 356 2 8 12 11 17 16 15 18 24 31 42 55 73
245 221 220 217 201 222 229 247 251 262 271 279 287 295 306 313 316 314 314 318 320 315 314 320 325 329 337 340 347 351 358 6 11 11 17 19 17 19 24 32 45 55 71
220 207 210 205 205 207 225 224 246 263 273 278 284 292 303 308 312 313 315 317 321 322 315 318 323 324 333 339 343 348 354 1 8 15 16 22 19 22 29 37 47 54 68
260 226 203 203 210 221 229 240 251 261 270 280 287 290 299 306 312 314 313 312 317 323 318 317 319 320 329 334 337 344 349 357 5 12 17 18 25 25 29 43 47 53 61
263 256 252 224 213 206 226 245 255 267 272 276 281 283 292 297 305 307 309 312 316 322 321 319 318 317 323 328 335 338 343 353 1 8 16 16 22 28 30 36 51 54 55
249 249 252 259 236 223 225 236 248 257 267 273 276 284 281 283 290 293 304 315 322 323 322 315 311 313 318 322 328 331 339 346 354 5 12 16 17 25 34 30 38 44 41
248 249 251 251 251 248 254 241 249 256 266 270 270 275 278 277 285 292 304 304 314 319 319 317 323 300 312 322 321 325 333 339 345 357 7 13 17 23 30 34 28 40 35
245 248 249 249 249 248 248 252 254 259 263 264 266 279 300 289 290 299 324 318 325 327 317 314 321 324 317 303 298 317 321 330 336 342 0 7 13 22 27 31 33 30 40
242 242 247 248 251 249 243 244 247 253 262 264 267 273 280 288 296 293 314 301 305 313 315 318 317 321 327 329 311 293 306 317 325 329 342 1 6 19 25 29 32 33 34
244 243 240 245 242 244 250 253 253 255 263 266 266 268 272 276 283 283 292 294 297 304 307 310 312 311 319 320 323 306 282 289 308 317 322 349 358 9 28 24 28 29 33
243 243 239 237 238 239 244 243 252 257 260 260 264 264 265 265 270 279 285 285 296 298 304 302 299 298 302 311 310 317 301 300 284 294 302 320 343 356 22 30 25 31 29
238 237 240 243 241 237 241 251 241 246 254 258 260 260 261 265 267 271 276 283 287 289 288 291 293 293 289 298 302 299 286 283 279 273 275 289 313 339 359 28 32 33 36
238 238 243 243 244 245 242 243 245 254 251 255 257 258 259 262 264 268 272 274 276 277 280 284 278 277 285 288 296 300 300 273 276 263 246 262 279 312 336 355 22 37 41
238 237 237 241 241 243 246 249 250 255 253 249 257 256 258 261 264 266 268 272 274 274 272 275 268 274 273 275 290 291 273 273 258 272 257 241 254 276 300 320 343 29 39
237 237 238 241 242 244 245 247 251 251 252 251 254 256 256 260 265 267 267 266 271 273 275 278 269 272 264 270 280 275 258 256 262 261 291 255 236 247 264 278 293 320 18
233 235 237 238 238 241 245 246 245 246 247 251 253 255 255 257 259 265 272 272 276 281 282 286 263 253 257 257 255 243 269 265 278 265 256 251 230 244 247 263 263 267 261
229 232 236 238 240 241 242 243 243 244 245 246 249 248 247 249 252 259 271 280 285 291 284 260 245 254 254 250 233 226 264 256 267 281 250 239 231 247 246 254 256 249 248
227 230 234 237 239 240 239 239 240 240 242 243 242 244 244 241 246 253 255 262 257 262 259 260 263 273 278 244 237 257 245 257 267 288 263 244 238 234 248 248 259 256 243
228 229 232 237 239 241 238 238 237 238 238 239 243 242 240 243 248 251 250 249 251 261 263 270 272 268 263 269 255 252 261 269 270 275 277 256 245 233 228 238 247 255 255
230 227 231 233 235 232 235 238 241 238 237 238 235 237 242 246 251 249 247 250 248 241 249 256 268 274 271 256 258 259 265 268 264 265 276 259 239 244 247 239 233 233 247
228 228 228 227 227 232 236 239 241 238 237 237 245 242 241 248 249 244 244 245 245 239 246 258 271 286 285 281 271 263 255 258 257 256 248 261 261 242 252 254 258 236 230
Height
5929 5932 5932 5933 5933 5932 5933 5934 5935 5935 5934 5932 5931 5929 5927 5925 5922 5918 5916 5912 5908 5904 5900 5895 5890 5885 5880 5873 5864 5854 5843 5831 5817 5804 5792 5782 5771 5760 5751 5744 5738 5734 5732
5923 5928 5930 5931 5930 5930 5931 5933 5932 5931 5931 5929 5929 5927 5924 5922 5921 5917 5914 5912 5908 5904 5899 5895 5889 5884 5879 5873 5865 5855 5845 5832 5819 5806 5794 5783 5774 5762 5753 5746 5741 5737 5734
5916 5919 5923 5927 5930 5930 5929 5928 5930 5928 5928 5927 5924 5924 5921 5919 5918 5915 5912 5910 5907 5903 5898 5894 5888 5884 5878 5872 5866 5856 5846 5834 5821 5808 5795 5784 5776 5766 5755 5747 5741 5738 5736
5918 5918 5918 5919 5924 5927 5926 5925 5926 5927 5924 5924 5923 5921 5920 5917 5915 5912 5910 5908 5906 5902 5898 5893 5887 5883 5878 5872 5867 5858 5848 5837 5825 5813 5800 5789 5780 5771 5759 5749 5742 5739 5739
5915 5914 5915 5915 5916 5922 5922 5922 5922 5924 5921 5920 5921 5918 5916 5915 5913 5909 5907 5905 5903 5900 5897 5892 5887 5882 5877 5873 5867 5859 5849 5840 5829 5819 5808 5796 5785 5775 5764 5754 5747 5742 5743
5910 5913 5913 5912 5910 5915 5917 5917 5918 5919 5917 5916 5917 5917 5913 5911 5910 5906 5903 5902 5900 5898 5894 5891 5886 5881 5877 5872 5866 5860 5851 5842 5834 5825 5814 5802 5793 5782 5772 5762 5755 5749 5748
5899 5903 5905 5908 5906 5909 5914 5914 5914 5915 5915 5914 5913 5913 5911 5908 5907 5904 5901 5899 5898 5895 5891 5889 5885 5879 5876 5872 5867 5860 5853 5846 5839 5831 5821 5810 5800 5790 5782 5772 5766 5762 5761
5885 5889 5896 5900 5899 5902 5906 5910 5911 5909 5911 5910 5910 5909 5908 5906 5904 5902 5899 5897 5894 5893 5890 5887 5883 5878 5875 5872 5868 5862 5857 5850 5844 5836 5826 5818 5810 5800 5793 5785 5778 5773 5774
5886 5883 5883 5876 5895 5899 5901 5903 5905 5906 5906 5906 5906 5905 5904 5902 5901 5898 5896 5893 5892 5890 5887 5884 5881 5877 5875 5872 5868 5864 5859 5854 5846 5839 5832 5825 5818 5810 5803 5798 5791 5787 5784
5883 5883 5883 5884 5889 5891 5894 5898 5900 5901 5902 5902 5902 5901 5901 5899 5898 5896 5892 5890 5889 5888 5884 5881 5879 5876 5873 5870 5867 5864 5861 5856 5849 5843 5837 5830 5824 5819 5811 5806 5802 5799 5797
5878 5879 5879 5879 5885 5885 5887 5892 5894 5896 5897 5898 5897 5896 5896 5895 5894 5892 5888 5886 5885 5884 5882 5878 5876 5872 5871 5869 5865 5863 5861 5857 5852 5846 5841 5836 5830 5823 5817 5813 5808 5803 5801
5870 5872 5874 5876 5877 5879 5881 5883 5889 5891 5892 5892 5892 5890 5889 5889 5889 5888 5884 5883 5881 5880 5877 5874 5871 5869 5867 5867 5864 5861 5860 5857 5853 5849 5845 5841 5836 5829 5823 5817 5814 5810 5805
5862 5864 5868 5871 5873 5875 5879 5881 5884 5885 5886 5886 5886 5886 5884 5881 5881 5883 5879 5878 5878 5876 5875 5872 5868 5866 5863 5862 5859 5858 5857 5857 5854 5851 5847 5844 5840 5833 5828 5823 5818 5813 5809
5852 5855 5858 5862 5865 5869 5872 5875 5877 5878 5879 5880 5881 5881 5880 5879 5879 5878 5879 5876 5873 5872 5870 5867 5864 5862 5860 5858 5856 5856 5854 5854 5854 5851 5849 5845 5842 5837 5831 5828 5823 5820 5814
5840 5845 5849 5853 5856 5859 5864 5867 5868 5870 5872 5873 5873 5874 5874 5873 5873 5873 5873 5873 5870 5868 5866 5864 5860 5858 5856 5854 5853 5852 5850 5851 5850 5850 5848 5846 5844 5840 5834 5831 5827 5824 5820
5825 5831 5837 5842 5847 5851 5855 5858 5860 5863 5864 5864 5865 5866 5868 5868 5867 5867 5866 5866 5865 5863 5862 5859 5856 5855 5852 5850 5848 5848 5846 5847 5847 5847 5847 5845 5843 5841 5836 5833 5830 5827 5825
5813 5819 5825 5830 5835 5840 5844 5848 5850 5853 5854 5856 5857 5858 5860 5860 5859 5859 5859 5858 5857 5857 5856 5854 5851 5849 5847 5846 5844 5844 5843 5841 5841 5842 5844 5843 5842 5841 5838 5835 5832 5829 5827
5800 5806 5812 5817 5822 5827 5832 5836 5839 5842 5844 5846 5848 5849 5850 5850 5851 5851 5851 5850 5849 5848 5847 5846 5844 5843 5841 5840 5839 5838 5837 5836 5836 5837 5839 5840 5839 5839 5838 5837 5836 5831 5829
5784 5792 5798 5804 5809 5813 5818 5824 5828 5831 5834 5837 5839 5840 5841 5841 5841 5842 5841 5840 5839 5838 5838 5837 5837 5836 5835 5833 5833 5833 5834 5833 5832 5832 5833 5836 5836 5836 5836 5836 5835 5834 5830
5772 5778 5784 5791 5796 5801 5807 5812 5817 5820 5823 5827 5829 5831 5832 5833 5833 5833 5832 5831 5829 5827 5826 5826 5826 5828 5827 5827 5828 5827 5826 5827 5828 5827 5828 5830 5831 5831 5832 5832 5833 5832 5832
5760 5766 5772 5778 5784 5789 5794 5799 5804 5809 5813 5816 5820 5822 5823 5824 5825 5824 5823 5821 5820 5818 5815 5814 5816 5817 5818 5820 5821 5822 5822 5821 5821 5822 5822 5823 5826 5828 5828 5829 5830 5830 5829
5748 5754 5760 5766 5772 5777 5783 5788 5792 5797 5802 5806 5810 5813 5815 5816 5816 5816 5815 5814 5813 5811 5810 5810 5811 5812 5813 5814 5815 5816 5817 5817 5818 5819 5819 5818 5821 5824 5825 5826 5826 5826 5827
5736 5743 5749 5754 5760 5767 5772 5777 5782 5786 5791 5796 5800 5803 5806 5807 5808 5808 5808 5809 5808 5808 5808 5808 5808 5809 5809 5808 5809 5809 5812 5813 5814 5814 5815 5816 5815 5817 5820 5822 5823 5821 5822
5724 5731 5738 5744 5750 5756 5761 5766 5771 5776 5780 5784 5788 5792 5795 5798 5799 5799 5800 5802 5803 5803 5803 5803 5803 5804 5805 5802 5804 5806 5807 5807 5809 5809 5808 5809 5810 5811 5813 5816 5818 5817 5817
5713 5720 5727 5735 5740 5746 5750 5756 5761 5765 5769 5773 5777 5781 5785 5787 5790 5791 5792 5794 5797 5798 5799 5799 5799 5798 5799 5798 5799 5800 5801 5803 5802 5802 5802 5801 5803 5804 5806 5807 5809 5812 5811
5704 5709 5717 5725 5731 5736 5741 5746 5751 5755 5759 5763 5767 5770 5773 5777 5779 5782 5784 5786 5789 5790 5792 5792 5793 5792 5792 5793 5793 5794 5795 5795 5796 5797 5796 5799 5799 5798 5799 5799 5799 5801 5803